Powrót do katalogu

HULIANWANG DIGUI-105

AktywnyŁącznośćLEO
NORAD 66915·PAYLOAD·🇨🇳 China

Wystrzelony Dec 6, 2025 z Wenchang Space Launch Site

Loading…

Następne Przeloty (najbliższe 24 godziny)

TLE

ŚwieżeSource: Space-Track

Epoka: Sep 14, 2026, 04:31 UTC

1 66915U 25285A   26257.18871948 -.00000082  00000-0  90028-4 0  9991
2 66915  50.0043 187.0227 0000184 230.4270 129.6586 13.29325639 37896

Śledź HULIANWANG DIGUI-105 w czasie rzeczywistym z AllMySat

Download on the App Store